Location: Hokitika
(42.7170°S, 170.9670°E)
Time: 18:15:21
(UTC+13:00)

ISS - Visible Passes

Search period start: 03 October 2023 00:00
Search period end: 13 October 2023 00:00
Orbit: 414 x 421 km, 51.6° (Epoch: 02 October)

Date Brightness Start Highest point End Pass type
(mag) Time Alt. Az. Time Alt. Az. Time Alt. Az.
03 Oct -1.2 04:40:40 19° S 04:40:40 19° S 04:42:42 10° SE visible
03 Oct -1.5 06:14:58 10° SW 06:17:45 22° SSE 06:20:32 10° ESE visible
04 Oct -0.2 03:54:19 11° SE 03:54:19 11° SE 03:54:33 10° SE visible
04 Oct -1.3 05:27:14 12° SW 05:29:25 19° S 05:32:01 10° ESE visible
05 Oct -1.3 04:40:53 18° S 04:41:01 18° S 04:43:31 10° SE visible
05 Oct -2.1 06:15:21 10° SW 06:18:32 33° SSE 06:21:41 10° E visible
06 Oct -0.3 03:54:32 13° SE 03:54:32 13° SE 03:55:05 10° SE visible
06 Oct -1.7 05:27:27 11° SW 05:30:11 26° SSE 05:33:09 10° ESE visible
07 Oct -1.5 04:41:09 21° S 04:41:45 22° SSE 04:44:31 10° ESE visible
07 Oct -3.4 06:15:32 10° SW 06:18:59 69° SSE 06:22:24 10° ENE visible
08 Oct -0.5 03:54:56 14° SE 03:54:56 14° SE 03:55:51 10° SE visible
08 Oct -2.7 05:27:51 14° SW 05:30:39 45° SSE 05:33:58 10° ENE visible
09 Oct -2.1 04:41:45 31° S 04:42:13 32° SSE 04:45:22 10° E visible
09 Oct -3.4 06:15:46 10° WSW 06:19:05 45° NW 06:22:21 10° NE visible
10 Oct -0.6 03:55:49 15° ESE 03:55:49 15° ESE 03:56:38 10° ESE visible
10 Oct -3.8 05:28:46 23° WSW 05:30:46 78° NW 05:34:10 10° NE visible
11 Oct -2.8 04:43:07 47° E 04:43:07 47° E 04:45:46 10° ENE visible
11 Oct -2.1 06:16:27 10° W 06:18:47 17° NW 06:21:06 10° N visible
12 Oct -2.7 05:30:48 28° NNW 05:30:48 28° NNW 05:33:29 10° NNE visible
